This demonstration page uses our WeatherBlox Daily Observations layout. Learn more.

Left ArrowRight Arrow

47.50024, -111.30081

Hourly Observations for January 1, 2022

Temp ( °F °C ) Dew Point ( °F °C ) Humidity (%) Winds ( mph kmh ) Pressure ( in mb ) Visibility ( mi km ) Precip ( " mm )
12:53 am 00:53 Clear -14 -25.6 -19 -28.3 78 78 S 3 6 30.20 1023 10 16 0.00 0.00
1:53 am 01:53 Clear -16 -26.7 -22 -30 74 74 SW 5 7 30.21 1023 10 16 0.00 0.00
2:53 am 02:53 Clear -20 -28.9 -24 -31.1 81 81 SW 8 13 30.24 1024 10 16 0.00 0.00
3:53 am 03:53 Clear -14 -25.6 -19 -28.3 78 78 SSW 12 19 30.20 1023 10 16 0.00 0.00
4:53 am 04:53 Clear -8 -22.2 -15 -26.1 71 71 SSW 13 20 30.19 1023 10 16 0.00 0.00
5:53 am 05:53 Clear -5 -20.6 -12 -24.4 72 72 SSW 14 22 30.19 1022 10 16 0.00 0.00
6:53 am 06:53 Clear -2 -18.9 -10 -23.3 68 68 SSW 14 22 30.19 1023 10 16 0.00 0.00
7:53 am 07:53 Clear 0 -17.8 -9 -22.8 65 65 SSW 15 24 30.16 1021 10 16 0.00 0.00
8:53 am 08:53 Sunny 1 -17.2 -8 -22.2 65 65 SSW 16 26 30.16 1021 10 16 0.00 0.00
9:53 am 09:53 Sunny 8 -13.3 -5 -20.6 55 55 SW 22 35 30.14 1021 10 16 0.00 0.00
10:53 am 10:53 Sunny 11 -11.7 -2 -18.9 55 55 SSW 16 26 30.14 1021 10 16 0.00 0.00
11:53 am 11:53 Sunny 13 -10.6 0 -17.8 56 56 SW 28 44 30.10 1019 10 16 0.00 0.00
12:53 pm 12:53 Sunny 15 -9.4 1 -17.2 53 53 SW 25 41 30.07 1018 10 16 0.00 0.00
1:53 pm 13:53 Partly Cloudy 16 -8.9 1 -17.2 51 51 SW 26 43 30.07 1018 9 14 0.00 0.00
2:53 pm 14:53 Sunny 16 -8.9 1 -17.2 51 51 SW 31 50 30.07 1018 10 16 0.00 0.00
3:53 pm 15:53 Sunny 16 -8.9 0 -17.8 49 49 SW 23 37 30.08 1019 10 16 0.00 0.00
4:53 pm 16:53 Clear 16 -8.9 1 -17.2 51 51 SW 24 39 30.06 1018 10 16 0.00 0.00
5:53 pm 17:53 Clear 18 -7.8 2 -16.7 49 49 SW 28 44 30.04 1017 10 16 0.00 0.00
6:53 pm 18:53 Mostly Cloudy 20 -6.7 4 -15.6 50 50 SW 29 46 30.05 1018 10 16 0.00 0.00
7:53 pm 19:53 Mostly Clear 20 -6.7 5 -15 52 52 SW 28 44 30.04 1017 10 16 0.00 0.00
8:53 pm 20:53 Clear 20 -6.7 7 -13.9 57 57 SW 33 54 30.05 1018 8 13 0.00 0.00
9:53 pm 21:53 Clear 22 -5.6 6 -14.4 50 50 SW 33 54 30.05 1018 10 16 0.00 0.00
10:53 pm 22:53 Mostly Clear 23 -5 8 -13.3 53 53 SW 33 54 30.04 1017 7 11 0.00 0.00
11:53 pm 23:53 Partly Cloudy 24 -4.4 9 -12.8 52 52 SW 29 46 30.06 1018 10 16 0.00 0.00

Powered by AerisWeather